[[{"header":{"parameterUnit":"m.s-1","parameterCategory":2,"la1":30.2991,"la2":30.254,"lo1":-89.0895,"lo2":-89.0444,"dy":0.0017,"dx":0.0017,"nx":28,"ny":28,"refTime":"2025-07-27T21:00:00:Z","depth":"0","parameterNumber":2,"parameterNumberName":"U-component_of_CURRENTS"},"data":[0,0,0,0,0,0,0,0,0,0,0,0,0,0,0,0,0,0,0,0,0,0,0,0,0,0,0,0,0,0,0,0,0,0,0,0,0,0,0,0,0,0,0,0,0,0,0,0,0,0,0,0,0,0,0,0,0,0,0.3973,0.3974,0,0.4041,0.4041,0.4041,0.4055,0.4054,0.4054,0.4054,0.4124,0.4126,0.4128,0,0,0,0,0,0,0,0,0,0,0,0,0,0.3696,0.3702,0.3973,0.3974,0.3975,0.404,0.4041,0.4041,0.4055,0.4054,0.4054,0.4054,0.4124,0.4126,0.4128,0,0,0,0,0,0,0,0,0,0,0,0,0,0.3791,0.3703,0.3973,0.3993,0.3996,0.404,0.4041,0.4042,0.4055,0.4054,0.4054,0.4054,0.4123,0.4126,0.4129,0.4151,0,0,0.4138,0.4139,0,0,0,0,0,0,0,0,0.3786,0.3801,0.3989,0.3992,0.3995,0.4043,0.3969,0.408,0.4055,0.4028,0.4054,0.4054,0.41,0.4105,0.4112,0.4154,0.4157,0.4138,0.414,0.4141,0.4142,0,0,0,0,0,0,0,0.378,0.3797,0.3995,0.399,0.3994,0.3945,0.3959,0.3989,0.4061,0.403,0.4032,0.4047,0.4102,0.4109,0.4114,0.4158,0.4138,0.4141,0.4142,0.4144,0.4257,0.4258,0,0,0,0,0,0,0.379,0.3793,0.3993,0.3998,0.3893,0.3951,0.3966,0.4024,0.406,0.4067,0.4047,0.4047,0.4104,0.411,0.4116,0.4172,0.4141,0.4144,0.4146,0.4256,0.4257,0.4259,0,0,0,0,0,0,0.3785,0.3809,0.399,0.3896,0.3917,0.3957,0.4021,0.4026,0.4035,0.4074,0.408,0.4052,0.4104,0.4112,0.4163,0.4174,0.4145,0.4148,0.4255,0.4256,0.4258,0.4266,0,0,0,0,0,0,0.3777,0.3808,0.3838,0.39,0.3923,0.4016,0.4022,0.4027,0.4047,0.4048,0.4081,0.4087,0.4105,0.4158,0.4166,0.4177,0.415,0.4253,0.4255,0.4258,0.4264,0.4268,0.4271,0,0,0,0,0,0.3768,0.3808,0.384,0.3863,0.397,0.4017,0.4023,0.4046,0.4047,0.4052,0.409,0.4086,0.4178,0.4162,0.417,0.4183,0.4252,0.4255,0.4257,0.4263,0.4267,0.4271,0,0,0,0,0,0,0.3685,0.3816,0.3851,0.3926,0.3971,0.4021,0.4024,0.4046,0.4077,0.4078,0.4109,0.4119,0.4171,0.4178,0.416,0.4224,0.4211,0.4216,0.4213,0.4217,0.422,0.4216,0.4153,0,0,0,0,0,0.3691,0.3765,0.3856,0.3908,0.3934,0.398,0.3997,0.4021,0.4063,0.4075,0.4104,0.414,0.4188,0.4203,0.4243,0.4274,0.4278,0.4286,0.429,0.4293,0.4296,0.4332,0.4339,0.4268,0.4268,0.4268,0,0,0.3663,0.3749,0.3784,0.3895,0.3928,0.3967,0.3988,0.402,0.4054,0.408,0.4121,0.416,0.4204,0.425,0.4271,0.4255,0.4311,0.4296,0.4298,0.43,0.4336,0.4342,0.4348,0.427,0.427,0.4269,0,0,0.3641,0.3732,0.3779,0.3829,0.3903,0.3944,0.3957,0.4019,0.4046,0.4102,0.4136,0.4183,0.4238,0.4276,0.4303,0.4348,0.4339,0.4354,0.4355,0.439,0.4396,0.4401,0.4392,0.4396,0.4342,0.4342,0.4342,0,0.3594,0.3699,0.3784,0.3835,0.3874,0.3936,0.397,0.4012,0.408,0.4112,0.4115,0.4216,0.4253,0.4318,0.4341,0.4355,0.4359,0.4333,0.4393,0.4399,0.4404,0.4393,0.4398,0.4343,0.4343,0.4342,0.4342,0,0.3614,0.3687,0.3709,0.3819,0.3862,0.39,0.3984,0.4026,0.4069,0.4115,0.4189,0.4241,0.4296,0.4317,0.4349,0.4405,0.439,0.4402,0.4378,0.4411,0.4398,0.4403,0.4344,0.4343,0.4343,0.4343,0,0,0.354,0.3696,0.3701,0.3758,0.3865,0.3908,0.397,0.4056,0.4099,0.4156,0.4208,0.4295,0.4315,0.4347,0.438,0.4412,0.4454,0.4422,0.4424,0.4403,0.4501,0.4306,0.4292,0.4478,0.448,0.4481,0.4467,0,0.3524,0.3622,0.3703,0.3774,0.3835,0.3919,0.3972,0.4053,0.412,0.4183,0.4246,0.4307,0.4328,0.4354,0.4393,0.4458,0.4471,0.4454,0.4481,0.4481,0.4296,0.4293,0.4045,0.3996,0.4472,0.4473,0.4473,0,0.3521,0.3604,0.3672,0.3801,0.3829,0.3868,0.3979,0.4036,0.4139,0.4186,0.4246,0.43,0.4372,0.4378,0.4464,0.4453,0.4477,0.4506,0.4506,0.4326,0.4294,0.4046,0.3987,0.3885,0.448,0.448,0.4479,0,0.3461,0.3583,0.3644,0.3686,0.3825,0.3862,0.3925,0.4028,0.4082,0.4182,0.4223,0.4306,0.4353,0.4406,0.4467,0.4477,0.4539,0.4556,0.439,0.4375,0.4167,0.413,0.4001,0.4599,0.4599,0.4599,0.4599,0,0.3442,0.3492,0.3621,0.3661,0.3722,0.3825,0.3882,0.3958,0.4051,0.4105,0.4209,0.4255,0.4371,0.4423,0.4463,0.4417,0.4528,0.4377,0.4358,0.4157,0.4122,0.4027,0.403,0.4598,0.4598,0.4599,0.4599,0,0.3367,0.3456,0.3532,0.3661,0.3699,0.3735,0.3846,0.389,0.3987,0.4057,0.4089,0.4232,0.4274,0.4341,0.4426,0.4383,0.4233,0.4338,0.4063,0.401,0.3703,0.3716,0.3471,0.3396,0.4126,0.4121,0.4117,0,0.3345,0.3376,0.3495,0.3531,0.3585,0.3658,0.3706,0.3831,0.3883,0.403,0.4059,0.4138,0.4144,0.4155,0.4105,0.4058,0.4039,0.3803,0.3765,0.3622,0.3629,0.3557,0.3512,0.35,0.3491,0.3484,0.3478,0,0.3294,0.332,0.3379,0.3444,0.35,0.3556,0.364,0.3673,0.3813,0.3855,0.392,0.3931,0.392,0.3743,0.3665,0.363,0.3571,0.3646,0.3592,0.3181,0.3006,0.2945,0.3567,0.3413,0.342,0.3424,0.3428,0.343,0.3236,0.3235,0.3302,0.3334,0.3405,0.3435,0.34,0.3483,0.351,0.349,0.3674,0.3541,0.3442,0.327,0.3231,0.2961,0.3099,0.284,0.2887,0.2842,0.2688,0.3124,0.2891,0.2894,0.2897,0.29,0.2902,0,0.3144,0.3151,0.3195,0.3219,0.3208,0.3293,0.3331,0.3239,0.3162,0.3176,0.3142,0.292,0.2699,0.262,0.2384,0.2243,0.221,0.2181,0.207,0.2087,0.2537,0.2427,0.1965,0.1965,0.1965,0.1965,0.1965,0.1966,0.3111,0.3078,0.3073,0.3009,0.3013,0.2925,0.2888,0.277,0.2719,0.2476,0.2282,0.2243,0.2206,0.2013,0.1801,0.1753,0.1703,0.1524,0.1678,0.2035,0.2103,0.2167,0.2062,0.1531,0.1531,0.1089,0.1085,0.1083]},{"header":{"parameterUnit":"m.s-1","parameterCategory":2,"la1":30.2991,"la2":30.254,"lo1":-89.0895,"lo2":-89.0444,"dy":0.0017,"dx":0.0017,"nx":28,"ny":28,"refTime":"2025-07-27T21:00:00:Z","depth":"0","parameterNumber":3,"parameterNumberName":"V-component_of_CURRENTS"},"data":[0,0,0,0,0,0,0,0,0,0,0,0,0,0,0,0,0,0,0,0,0,0,0,0,0,0,0,0,0,0,0,0,0,0,0,0,0,0,0,0,0,0,0,0,0,0,0,0,0,0,0,0,0,0,0,0,0,0,0.0246,0.0246,0,0.0217,0.0217,0.0217,0.0169,0.0169,0.0168,0.0167,0.0055,0.0053,0.005,0,0,0,0,0,0,0,0,0,0,0,0,0,0.0294,0.0293,0.0246,0.0246,0.0245,0.0218,0.0217,0.0217,0.017,0.0169,0.0167,0.0166,0.0055,0.0053,0.005,0,0,0,0,0,0,0,0,0,0,0,0,0,0.027,0.0293,0.0246,0.0218,0.0215,0.0218,0.0217,0.0217,0.017,0.0168,0.0167,0.0166,0.0056,0.0053,0.005,0.0057,0,0,0.004,0.0039,0,0,0,0,0,0,0,0,0.0272,0.0269,0.0223,0.022,0.0217,0.0195,0.0193,0.0159,0.017,0.0188,0.0167,0.0165,0.0095,0.0088,0.0088,0.0052,0.0047,0.004,0.0038,0.0036,0.0036,0,0,0,0,0,0,0,0.0273,0.027,0.0235,0.0223,0.0219,0.0219,0.0214,0.0187,0.0148,0.0186,0.0182,0.0179,0.0092,0.0091,0.0084,0.0045,0.004,0.0037,0.0035,0.0034,-0.0021,-0.002,0,0,0,0,0,0,0.0276,0.0271,0.0236,0.0234,0.0241,0.0219,0.0213,0.0204,0.015,0.0141,0.018,0.0177,0.0097,0.0088,0.008,0.0069,0.0036,0.0033,0.0032,-0.0021,-0.0021,-0.002,0,0,0,0,0,0,0.0277,0.0273,0.0237,0.0252,0.0248,0.0219,0.021,0.0204,0.0201,0.0146,0.0135,0.0182,0.0096,0.0085,0.0057,0.0065,0.0032,0.0029,-0.0022,-0.0021,-0.002,0.0057,0,0,0,0,0,0,0.0279,0.0273,0.0275,0.0252,0.0247,0.024,0.0211,0.0205,0.0201,0.0196,0.0145,0.0133,0.0094,0.0062,0.0054,0.006,0.0027,-0.0022,-0.0022,-0.0021,0.0054,0.006,0.0066,0,0,0,0,0,0.028,0.0286,0.0275,0.0271,0.0247,0.0241,0.0239,0.0214,0.0202,0.0206,0.017,0.0134,0.0061,0.006,0.005,0.0055,-0.0023,-0.0022,-0.0021,0.0051,0.0059,0.0066,0,0,0,0,0,0,0.0313,0.0282,0.0268,0.0265,0.0255,0.0233,0.0236,0.0223,0.0202,0.0193,0.0144,0.013,0.0111,0.0074,0.0074,0.0042,0.0012,0.0012,0.007,0.0077,0.0083,0.01,0.0024,0,0,0,0,0,0.0321,0.0311,0.0289,0.0288,0.0284,0.0264,0.0261,0.0244,0.0221,0.021,0.0176,0.0137,0.011,0.0086,0.0057,0.0041,0.0044,0.0036,0.0042,0.0047,0.0054,0.0103,0.0116,-0.0017,-0.0017,-0.0017,0,0,0.0331,0.0316,0.0309,0.0294,0.0283,0.028,0.0259,0.0255,0.0247,0.0201,0.0183,0.0161,0.0113,0.0095,0.0082,0.0061,0.0082,0.0048,0.0053,0.0057,0.0106,0.0119,0.0131,-0.0016,-0.0016,-0.0016,0,0,0.0351,0.0336,0.0335,0.0329,0.0316,0.03,0.0302,0.0283,0.0269,0.0254,0.0222,0.0214,0.0159,0.0139,0.0117,0.0141,0.012,0.012,0.0155,0.0204,0.0216,0.0226,0.0234,0.0245,0.0115,0.0115,0.0115,0,0.0366,0.036,0.0338,0.0341,0.0337,0.0311,0.0315,0.03,0.0274,0.0273,0.0252,0.0223,0.0184,0.0178,0.0178,0.0157,0.0167,0.0133,0.0215,0.0226,0.0235,0.0241,0.0252,0.0119,0.0118,0.0118,0.0118,0,0.038,0.0382,0.0386,0.0371,0.0366,0.0368,0.0342,0.0337,0.0319,0.031,0.031,0.0279,0.026,0.0249,0.0213,0.0254,0.0233,0.0228,0.0205,0.0254,0.0255,0.0265,0.0124,0.0123,0.0122,0.0121,0,0,0.04,0.0394,0.0398,0.04,0.0382,0.038,0.0371,0.0364,0.0373,0.0355,0.0379,0.0342,0.0341,0.0318,0.029,0.0324,0.0391,0.0301,0.0302,0.0322,0.0478,0.0441,0.0448,0.0411,0.0413,0.0415,0.0447,0,0.0419,0.0432,0.042,0.0432,0.0438,0.0415,0.0414,0.0404,0.0395,0.0413,0.0401,0.0406,0.036,0.0362,0.039,0.0406,0.0423,0.0381,0.0415,0.0416,0.0389,0.0461,0.0459,0.0486,0.0457,0.0459,0.046,0,0.0439,0.0446,0.0461,0.0467,0.0468,0.0467,0.0469,0.0464,0.0475,0.0473,0.0486,0.0478,0.0508,0.047,0.0523,0.0501,0.0486,0.0494,0.0495,0.0443,0.0399,0.0433,0.0506,0.0448,0.0475,0.0474,0.0473,0,0.0468,0.0477,0.0489,0.049,0.049,0.0493,0.0486,0.0489,0.0503,0.052,0.0555,0.057,0.0606,0.0612,0.06,0.0574,0.0669,0.0635,0.0578,0.0573,0.0567,0.0558,0.0602,0.0667,0.0667,0.0667,0.0667,0,0.0498,0.0518,0.0503,0.0516,0.0531,0.0519,0.0543,0.0538,0.0568,0.0625,0.0592,0.0662,0.0653,0.0691,0.0652,0.0657,0.0707,0.0602,0.0597,0.0589,0.0582,0.0525,0.0481,0.0668,0.0668,0.0668,0.0668,0,0.055,0.0537,0.0555,0.0552,0.0549,0.0559,0.0574,0.0609,0.062,0.0701,0.0717,0.0765,0.0822,0.0784,0.0815,0.0739,0.0702,0.0703,0.0669,0.0659,0.0534,0.0493,0.0528,0.0511,0.0656,0.0656,0.0655,0,0.0587,0.0596,0.0583,0.0592,0.0594,0.0605,0.0629,0.063,0.0687,0.0784,0.0855,0.0912,0.0989,0.0985,0.0878,0.0799,0.0722,0.0693,0.0637,0.0547,0.0498,0.0478,0.046,0.0652,0.0651,0.0651,0.0651,0,0.0656,0.0638,0.0645,0.0662,0.0676,0.0706,0.0748,0.08,0.0849,0.0934,0.1091,0.1159,0.1134,0.1087,0.0922,0.0842,0.0657,0.0682,0.0628,0.0535,0.0482,0.0456,0.0575,0.0648,0.0648,0.0648,0.0649,0.0649,0.0705,0.0709,0.0709,0.0729,0.0764,0.0838,0.0885,0.0967,0.108,0.1227,0.1279,0.1391,0.1243,0.1048,0.0918,0.0642,0.0658,0.0551,0.0518,0.0514,0.0479,0.0564,0.0603,0.0603,0.0603,0.0603,0.0603,0,0.0749,0.075,0.0781,0.081,0.0885,0.0884,0.0995,0.107,0.1233,0.1355,0.1483,0.1466,0.1286,0.1045,0.0685,0.0513,0.0459,0.042,0.0404,0.04,0.052,0.0499,0.047,0.047,0.047,0.047,0.047,0.047,0.0767,0.0789,0.0795,0.0913,0.0959,0.1065,0.1137,0.1258,0.1367,0.1517,0.1565,0.1595,0.1424,0.0844,0.0476,0.0385,0.0296,0.0267,0.0236,0.0308,0.0318,0.0328,0.03,0.023,0.023,0.0145,0.0144,0.0143]}],[{"header":{"parameterUnit":"m.s-1","parameterCategory":2,"la1":30.2991,"la2":30.254,"lo1":-89.0895,"lo2":-89.0444,"dy":0.0017,"dx":0.0017,"nx":28,"ny":28,"refTime":"2025-07-27T21:00:00:Z","depth":"2","parameterNumber":2,"parameterNumberName":"U-component_of_CURRENTS"},"data":[0,0,0,0,0,0,0,0,0,0,0,0,0,0,0,0,0,0,0,0,0,0,0,0,0,0,0,0,0,0,0,0,0,0,0,0,0,0,0,0,0,0,0,0,0,0,0,0,0,0,0,0,0,0,0,0,0,0,0.2385,0.2386,0,0.2429,0.2429,0.2429,0.2416,0.2416,0.2416,0.2416,0.2415,0.2415,0.2415,0,0,0,0,0,0,0,0,0,0,0,0,0,0.2324,0.2325,0.2385,0.2386,0.2388,0.2429,0.2429,0.2428,0.2416,0.2416,0.2416,0.2416,0.2415,0.2415,0.2415,0,0,0,0,0,0,0,0,0,0,0,0,0,0.2349,0.2325,0.2385,0.2394,0.2395,0.2429,0.2429,0.2428,0.2416,0.2416,0.2416,0.2416,0.2415,0.2415,0.2415,0.2416,0,0,0.2415,0.2415,0,0,0,0,0,0,0,0,0.2347,0.235,0.2391,0.2393,0.2395,0.2425,0.2408,0.2425,0.2416,0.2398,0.2416,0.2416,0.2421,0.242,0.2416,0.2416,0.2416,0.2415,0.2415,0.2415,0.2415,0,0,0,0,0,0,0,0.2346,0.2348,0.2393,0.2393,0.2396,0.2408,0.241,0.2411,0.2401,0.24,0.2401,0.2421,0.242,0.2416,0.2416,0.2416,0.2415,0.2415,0.2415,0.2415,0.2522,0.2525,0,0,0,0,0,0,0.2358,0.2346,0.2392,0.2395,0.2382,0.241,0.2411,0.2408,0.2402,0.2404,0.2421,0.2421,0.2416,0.2416,0.2416,0.2485,0.2415,0.2415,0.2415,0.2519,0.2523,0.2526,0,0,0,0,0,0,0.2355,0.236,0.239,0.2381,0.2387,0.2411,0.2407,0.2409,0.2442,0.2421,0.242,0.2458,0.2416,0.2416,0.2457,0.2482,0.2415,0.2415,0.2516,0.252,0.2524,0.258,0,0,0,0,0,0,0.2353,0.2358,0.237,0.2381,0.2388,0.2427,0.2409,0.241,0.2456,0.2457,0.2451,0.2449,0.2416,0.2457,0.2457,0.2481,0.2415,0.2512,0.2518,0.2523,0.2575,0.2586,0.2595,0,0,0,0,0,0.235,0.2363,0.2369,0.2376,0.2398,0.2429,0.2433,0.2444,0.2459,0.2473,0.2486,0.2451,0.249,0.246,0.2458,0.2483,0.251,0.2516,0.2522,0.257,0.2583,0.2595,0,0,0,0,0,0,0.2358,0.2365,0.2371,0.239,0.2419,0.2431,0.2451,0.2474,0.2495,0.2504,0.2484,0.2482,0.2527,0.2513,0.248,0.2536,0.2496,0.2502,0.2533,0.2545,0.2555,0.2508,0.2415,0,0,0,0,0,0.2364,0.2366,0.2389,0.2412,0.2422,0.2448,0.247,0.2486,0.2508,0.2518,0.2522,0.2533,0.2547,0.2555,0.256,0.2591,0.2593,0.2611,0.2622,0.263,0.2596,0.2693,0.2709,0.2546,0.2546,0.2546,0,0,0.2386,0.2385,0.2396,0.2414,0.2429,0.2442,0.2458,0.2502,0.2517,0.2515,0.2543,0.2571,0.2569,0.2598,0.2617,0.2591,0.2677,0.2638,0.2645,0.2605,0.2701,0.2717,0.2731,0.2551,0.255,0.2549,0,0,0.2405,0.2417,0.2415,0.2431,0.2466,0.2475,0.2502,0.2537,0.2551,0.2601,0.2603,0.2647,0.2675,0.2664,0.2665,0.274,0.2734,0.2769,0.277,0.2867,0.288,0.2891,0.29,0.2912,0.2767,0.2767,0.2767,0,0.2416,0.2414,0.243,0.2428,0.2442,0.2493,0.2502,0.2525,0.2578,0.2594,0.2619,0.2688,0.269,0.2711,0.2735,0.2755,0.2798,0.2717,0.2878,0.2889,0.29,0.2907,0.2919,0.2771,0.277,0.277,0.277,0,0.243,0.2428,0.2433,0.2428,0.2454,0.2477,0.2509,0.2546,0.2593,0.262,0.2686,0.2716,0.2748,0.2777,0.2771,0.2849,0.2849,0.2885,0.2837,0.2919,0.2921,0.2933,0.2776,0.2775,0.2773,0.2773,0,0,0.2416,0.2429,0.2432,0.2423,0.2452,0.2474,0.2501,0.2532,0.2562,0.2635,0.268,0.2722,0.2767,0.2772,0.28,0.2872,0.2981,0.2915,0.2919,0.2904,0.3162,0.2983,0.2978,0.3084,0.3086,0.3089,0.3125,0,0.2402,0.24,0.2412,0.2419,0.2412,0.2452,0.247,0.2519,0.2574,0.2636,0.2692,0.2757,0.2758,0.2811,0.2879,0.2979,0.302,0.2963,0.3098,0.3099,0.2917,0.2988,0.2748,0.2747,0.3137,0.3139,0.314,0,0.2361,0.2381,0.2388,0.2388,0.2392,0.242,0.2465,0.2497,0.2578,0.2629,0.2703,0.2765,0.285,0.2876,0.3025,0.3011,0.3065,0.3129,0.3134,0.2943,0.2943,0.2734,0.2753,0.3159,0.3158,0.3156,0.3155,0,0.2316,0.2321,0.2333,0.2342,0.2386,0.2408,0.2442,0.2509,0.2544,0.2655,0.2722,0.2813,0.2932,0.3012,0.3109,0.3109,0.3283,0.33,0.3158,0.3144,0.294,0.2902,0.3382,0.3382,0.3382,0.3382,0.3382,0,0.2257,0.2267,0.2324,0.2349,0.236,0.2408,0.2448,0.2485,0.2583,0.2651,0.2736,0.2812,0.3002,0.3109,0.3139,0.3169,0.3305,0.3135,0.3151,0.2949,0.2913,0.3273,0.326,0.3383,0.3383,0.3383,0.3382,0,0.2222,0.2247,0.2249,0.2318,0.2335,0.2362,0.244,0.249,0.2583,0.2688,0.2739,0.2898,0.3004,0.3093,0.326,0.3226,0.3253,0.3219,0.2914,0.2889,0.3026,0.3017,0.3048,0.3042,0.3037,0.3033,0.303,0,0.2202,0.2203,0.2242,0.2247,0.2292,0.2346,0.2393,0.248,0.2537,0.2711,0.2761,0.2913,0.2943,0.3045,0.3015,0.2975,0.312,0.2765,0.2682,0.2984,0.2998,0.2996,0.2992,0.2442,0.2434,0.2428,0.2423,0,0.217,0.2182,0.2219,0.2249,0.2284,0.2323,0.2398,0.2407,0.2546,0.2602,0.2688,0.2728,0.2796,0.2657,0.2634,0.2588,0.2738,0.2622,0.3095,0.254,0.241,0.2424,0.2443,0.2364,0.237,0.2374,0.2378,0.238,0.2147,0.215,0.2194,0.2203,0.2248,0.2288,0.225,0.2329,0.2353,0.2358,0.2501,0.2442,0.2486,0.2244,0.2168,0.2123,0.2302,0.2245,0.2268,0.2297,0.2197,0.2063,0.193,0.1933,0.1935,0.1938,0.194,0,0.2085,0.2126,0.2141,0.214,0.215,0.2235,0.2238,0.2151,0.2079,0.2136,0.2111,0.19,0.1771,0.18,0.1613,0.1601,0.1626,0.1562,0.1598,0.1654,0.1705,0.1578,0.1146,0.1144,0.1141,0.1139,0,0,0.2077,0.2045,0.2043,0.2018,0.2053,0.2004,0.1957,0.1852,0.1793,0.1645,0.1574,0.1631,0.1719,0.1396,0.1355,0.1226,0.1438,0.1172,0.1807,0.1905,0.1954,0.2091,0.1956,0,0,0,0,0]},{"header":{"parameterUnit":"m.s-1","parameterCategory":2,"la1":30.2991,"la2":30.254,"lo1":-89.0895,"lo2":-89.0444,"dy":0.0017,"dx":0.0017,"nx":28,"ny":28,"refTime":"2025-07-27T21:00:00:Z","depth":"2","parameterNumber":3,"parameterNumberName":"V-component_of_CURRENTS"},"data":[0,0,0,0,0,0,0,0,0,0,0,0,0,0,0,0,0,0,0,0,0,0,0,0,0,0,0,0,0,0,0,0,0,0,0,0,0,0,0,0,0,0,0,0,0,0,0,0,0,0,0,0,0,0,0,0,0,0,0.0083,0.0083,0,0.0041,0.0041,0.004,0.0008,0.0007,0.0007,0.0006,-0.0112,-0.0115,-0.0118,0,0,0,0,0,0,0,0,0,0,0,0,0,0.0151,0.015,0.0083,0.0083,0.0082,0.0041,0.0041,0.004,0.0008,0.0007,0.0007,0.0006,-0.0111,-0.0115,-0.0118,0,0,0,0,0,0,0,0,0,0,0,0,0,0.0118,0.015,0.0083,0.0059,0.0057,0.0041,0.0041,0.004,0.0008,0.0007,0.0007,0.0006,-0.011,-0.0114,-0.0118,-0.0129,0,0,-0.0131,-0.0132,0,0,0,0,0,0,0,0,0.012,0.0116,0.0064,0.0061,0.0058,0.0027,0.0021,-0.0021,0.0008,0.0028,0.0006,0.0006,-0.0073,-0.008,-0.0083,-0.0135,-0.014,-0.0131,-0.0134,-0.0135,-0.0136,0,0,0,0,0,0,0,0.0122,0.0118,0.0068,0.0063,0.0059,0.0056,0.0051,0.0013,-0.0018,0.0027,0.0024,0.0016,-0.0075,-0.0079,-0.0086,-0.0142,-0.0131,-0.0135,-0.0137,-0.0139,-0.0248,-0.0249,0,0,0,0,0,0,0.0124,0.012,0.007,0.0067,0.0086,0.0055,0.0049,0.0039,-0.0016,-0.0025,0.0017,0.0015,-0.0072,-0.0082,-0.0091,-0.0119,-0.0135,-0.0139,-0.0141,-0.0248,-0.0248,-0.0249,0,0,0,0,0,0,0.0125,0.012,0.0071,0.0091,0.0084,0.0054,0.0044,0.0039,0.0031,-0.0023,-0.0033,0.0013,-0.0073,-0.0085,-0.0134,-0.0124,-0.0141,-0.0145,-0.0247,-0.0248,-0.0249,-0.0169,0,0,0,0,0,0,0.0127,0.012,0.012,0.0091,0.0083,0.0074,0.0044,0.0039,0.0027,0.0024,-0.003,-0.0041,-0.0074,-0.0128,-0.0138,-0.013,-0.0148,-0.0247,-0.0248,-0.0248,-0.0171,-0.0167,-0.0163,0,0,0,0,0,0.013,0.0137,0.012,0.0114,0.0081,0.0074,0.0071,0.0048,0.0027,0.0036,-0.0017,-0.0039,-0.0141,-0.0131,-0.0144,-0.0136,-0.0246,-0.0247,-0.0248,-0.0173,-0.0168,-0.0163,0,0,0,0,0,0,0.0168,0.0133,0.0114,0.011,0.0096,0.0068,0.0073,0.0051,0.0019,0.0007,-0.0047,-0.0062,-0.0096,-0.0135,-0.0124,-0.0173,-0.0196,-0.02,-0.0135,-0.013,-0.0127,-0.0102,-0.0151,0,0,0,0,0,0.0174,0.0169,0.0138,0.0135,0.013,0.01,0.0094,0.0075,0.004,0.0027,-0.0013,-0.0066,-0.0108,-0.0135,-0.0172,-0.0204,-0.0196,-0.0209,-0.0205,-0.0201,-0.0192,-0.0142,-0.0131,-0.0252,-0.0252,-0.0252,0,0,0.0185,0.0168,0.0162,0.0143,0.0129,0.0133,0.0096,0.0089,0.0084,0.0016,-0.0003,-0.0049,-0.0113,-0.0142,-0.0162,-0.0176,-0.0169,-0.0202,-0.0198,-0.0191,-0.0142,-0.0129,-0.0118,-0.0253,-0.0253,-0.0253,0,0,0.0214,0.0192,0.02,0.0196,0.0177,0.0159,0.0158,0.0129,0.011,0.0081,0.003,-0.0008,-0.0074,-0.0108,-0.0139,-0.014,-0.0144,-0.0162,-0.0126,-0.0078,-0.0066,-0.0056,-0.0043,-0.0032,-0.0165,-0.0165,-0.0165,0,0.0231,0.0232,0.0205,0.0219,0.0215,0.0173,0.0184,0.0166,0.0123,0.0111,0.0083,0.0001,-0.0051,-0.0086,-0.0095,-0.0125,-0.0111,-0.0133,-0.0067,-0.0056,-0.0047,-0.0036,-0.0025,-0.0161,-0.0162,-0.0162,-0.0163,0,0.0261,0.0272,0.0282,0.0279,0.0273,0.0279,0.0245,0.0239,0.0203,0.0179,0.0143,0.0074,0.0025,-0.0,-0.0055,-0.0033,-0.0049,-0.0056,-0.0065,-0.0029,-0.0022,-0.0011,-0.0156,-0.0157,-0.0159,-0.0159,0,0,0.0278,0.0298,0.0302,0.0317,0.0303,0.0302,0.03,0.0286,0.0299,0.0244,0.0251,0.0161,0.0124,0.0085,0.002,0.0043,0.0106,0.0017,0.0018,0.0054,0.0198,0.014,0.0145,0.0124,0.0127,0.0129,0.0172,0,0.0312,0.0353,0.0344,0.0381,0.04,0.0372,0.038,0.0362,0.0342,0.0346,0.0269,0.0249,0.0154,0.0135,0.0138,0.0127,0.0139,0.0093,0.0135,0.0136,0.0102,0.0158,0.0158,0.0194,0.0182,0.0184,0.0185,0,0.0343,0.037,0.041,0.0441,0.0445,0.0453,0.0464,0.0469,0.0462,0.0449,0.0412,0.036,0.0333,0.0271,0.027,0.025,0.022,0.0212,0.0214,0.0143,0.0099,0.0155,0.0213,0.0203,0.0201,0.02,0.0199,0,0.0371,0.0414,0.0445,0.0456,0.0484,0.0489,0.0492,0.0497,0.0521,0.0519,0.0545,0.0493,0.0482,0.0458,0.038,0.035,0.0409,0.0372,0.0285,0.0279,0.0277,0.0267,0.0391,0.0391,0.0391,0.0391,0.0391,0,0.041,0.0442,0.0462,0.0487,0.0522,0.0524,0.0566,0.0573,0.061,0.0664,0.0593,0.0631,0.0539,0.0531,0.0455,0.0402,0.0466,0.0307,0.0301,0.0297,0.0289,0.029,0.0278,0.0392,0.0392,0.0392,0.0391,0,0.0439,0.0457,0.0509,0.0541,0.0541,0.0568,0.0606,0.066,0.0686,0.0761,0.0766,0.0764,0.0751,0.0643,0.0618,0.0505,0.0463,0.0418,0.039,0.0379,0.0276,0.0267,0.0347,0.0346,0.0345,0.0344,0.0343,0,0.0463,0.0491,0.0537,0.0569,0.058,0.0613,0.0649,0.0682,0.0764,0.085,0.0916,0.0903,0.0901,0.0812,0.064,0.0502,0.0471,0.0389,0.0318,0.0293,0.0279,0.0272,0.0264,0.0343,0.0342,0.0342,0.0341,0,0.0509,0.052,0.0554,0.0622,0.0661,0.0716,0.078,0.0857,0.0932,0.1001,0.112,0.1124,0.0996,0.0858,0.0624,0.0521,0.0408,0.0369,0.0414,0.0334,0.0288,0.0274,0.0268,0.0336,0.0337,0.0337,0.0337,0.0337,0.0537,0.0559,0.0609,0.0673,0.0743,0.0844,0.0895,0.0993,0.1113,0.1216,0.1244,0.1228,0.1057,0.0747,0.0575,0.0362,0.0371,0.0282,0.0286,0.0289,0.0261,0.0214,0.0242,0.0242,0.0242,0.0242,0.0242,0,0.0572,0.0593,0.0659,0.075,0.0853,0.0867,0.101,0.1068,0.1207,0.1261,0.1311,0.1127,0.0967,0.0764,0.0447,0.0266,0.0254,0.0199,0.0234,0.024,0.0246,0.0216,0.0184,0.0184,0.0183,0.0182,0,0,0.059,0.0639,0.0667,0.083,0.0904,0.1017,0.1097,0.1175,0.1243,0.1276,0.1248,0.1209,0.1002,0.0757,0.0529,0.0358,0.0331,0.0312,0.0376,0.045,0.0457,0.0311,0.0274,0,0,0,0,0]}],[{"header":{"parameterUnit":"m.s-1","parameterCategory":2,"la1":30.2991,"la2":30.254,"lo1":-89.0895,"lo2":-89.0444,"dy":0.0017,"dx":0.0017,"nx":28,"ny":28,"refTime":"2025-07-27T21:00:00:Z","depth":"4","parameterNumber":2,"parameterNumberName":"U-component_of_CURRENTS"},"data":[0,0,0,0,0,0,0,0,0,0,0,0,0,0,0,0,0,0,0,0,0,0,0,0,0,0,0,0,0,0,0,0,0,0,0,0,0,0,0,0,0,0,0,0,0,0,0,0,0,0,0,0,0,0,0,0,0,0,0.0501,0.0501,0,0.0529,0.053,0.053,0.0542,0.0542,0.0542,0.0542,0.0565,0.0565,0.0566,0,0,0,0,0,0,0,0,0,0,0,0,0,0.0569,0.0568,0.0501,0.0501,0.0501,0.0529,0.053,0.053,0.0542,0.0542,0.0542,0.0541,0.0564,0.0565,0.0566,0,0,0,0,0,0,0,0,0,0,0,0,0,0.0565,0.0567,0.0501,0.0509,0.051,0.0529,0.053,0.053,0.0542,0.0542,0.0542,0.0541,0.0564,0.0565,0.0566,0.0582,0,0,0.057,0.0571,0,0,0,0,0,0,0,0,0.0565,0.0562,0.0508,0.0509,0.0509,0.053,0.0562,0.0547,0.0542,0.0532,0.0542,0.0541,0.0551,0.0554,0.0563,0.0583,0.0584,0.057,0.0571,0.0572,0.0572,0,0,0,0,0,0,0,0.0565,0.0562,0.0515,0.0508,0.0509,0.0549,0.0547,0.056,0.0545,0.0533,0.0534,0.0533,0.0552,0.0562,0.0564,0.0584,0.057,0.0572,0.0572,0.0573,0.0646,0.0647,0,0,0,0,0,0,0.0551,0.0561,0.0514,0.0515,0.0534,0.0548,0.0546,0.0526,0.0545,0.0547,0.0534,0.0534,0.056,0.0562,0.0564,0.0604,0.0572,0.0573,0.0574,0.0645,0.0646,0.0647,0,0,0,0,0,0,0.0552,0.0546,0.0512,0.0539,0.0537,0.0546,0.0524,0.0526,0.0547,0.0545,0.0548,0.0552,0.056,0.0563,0.056,0.0604,0.0574,0.0575,0.0643,0.0645,0.0647,0.0669,0,0,0,0,0,0,0.0554,0.0546,0.0547,0.0537,0.0535,0.053,0.0524,0.0527,0.0545,0.0546,0.0562,0.0563,0.056,0.0558,0.0561,0.0605,0.0576,0.0642,0.0644,0.0646,0.0667,0.0672,0.0676,0,0,0,0,0,0.0556,0.0546,0.0546,0.0542,0.0528,0.053,0.0534,0.0542,0.0547,0.0559,0.055,0.0563,0.0576,0.0559,0.0563,0.0608,0.0641,0.0644,0.0646,0.0665,0.0671,0.0676,0,0,0,0,0,0,0.0591,0.0546,0.0546,0.0528,0.0534,0.0531,0.0549,0.0552,0.0559,0.0562,0.0558,0.0558,0.0572,0.0586,0.0567,0.0637,0.062,0.0624,0.0634,0.0639,0.0643,0.0639,0.0577,0,0,0,0,0,0.0595,0.0566,0.0552,0.0544,0.0548,0.0555,0.0564,0.0566,0.0563,0.0568,0.0581,0.0592,0.0588,0.0606,0.0607,0.0644,0.0676,0.0683,0.0687,0.069,0.0691,0.0764,0.0775,0.0656,0.0656,0.0656,0,0,0.0613,0.0581,0.0573,0.055,0.0559,0.0563,0.056,0.0574,0.0583,0.0569,0.0599,0.0597,0.0594,0.0619,0.0634,0.0639,0.0746,0.0694,0.0696,0.0695,0.0768,0.078,0.079,0.0658,0.0658,0.0657,0,0,0.0622,0.0604,0.0587,0.0587,0.0587,0.0587,0.0592,0.0604,0.0618,0.0631,0.062,0.0632,0.0657,0.0661,0.0661,0.0694,0.0748,0.0723,0.0762,0.0834,0.0845,0.0854,0.0927,0.0943,0.0747,0.0747,0.0747,0,0.0657,0.0613,0.0594,0.0584,0.0586,0.0595,0.0599,0.0614,0.0628,0.0647,0.0643,0.0685,0.0671,0.0701,0.0701,0.0704,0.0762,0.0739,0.084,0.085,0.086,0.0932,0.0949,0.0748,0.0748,0.0748,0.0748,0,0.0645,0.0628,0.0626,0.0601,0.0607,0.0614,0.062,0.0648,0.0666,0.0685,0.0729,0.0724,0.0758,0.0763,0.0729,0.0804,0.0828,0.082,0.0826,0.0873,0.0946,0.0964,0.075,0.075,0.075,0.0749,0,0,0.0669,0.0626,0.0628,0.0619,0.0615,0.0615,0.0638,0.0661,0.0696,0.0735,0.0787,0.078,0.0818,0.082,0.0824,0.0874,0.0967,0.0882,0.0885,0.0952,0.1152,0.1001,0.1006,0.0995,0.0998,0.1,0.1183,0,0.0674,0.0651,0.0626,0.0626,0.0618,0.0629,0.0645,0.0673,0.0717,0.0778,0.0809,0.0857,0.0835,0.0869,0.0915,0.0947,0.1013,0.092,0.1098,0.1103,0.0961,0.1019,0.1009,0.1196,0.12,0.1203,0.1205,0,0.0657,0.0641,0.0637,0.0619,0.0622,0.0636,0.0678,0.0696,0.0774,0.0817,0.0899,0.0936,0.101,0.0981,0.1114,0.107,0.1113,0.1139,0.1147,0.1005,0.0982,0.1136,0.1236,0.1234,0.1232,0.1229,0.1227,0,0.0647,0.0639,0.0633,0.0632,0.0627,0.0648,0.0665,0.0727,0.0765,0.0878,0.0936,0.1038,0.1104,0.1185,0.1229,0.1202,0.1368,0.1344,0.1259,0.1251,0.1324,0.1312,0.1444,0.1444,0.1443,0.1443,0.1442,0,0.0622,0.0616,0.0643,0.0633,0.065,0.0659,0.0713,0.0744,0.0836,0.0902,0.0979,0.1055,0.1159,0.1253,0.129,0.1328,0.144,0.1273,0.1285,0.1331,0.1317,0.1338,0.1323,0.145,0.1448,0.1447,0.1446,0,0.0587,0.0596,0.0584,0.0612,0.0633,0.065,0.0726,0.0767,0.0863,0.0961,0.1004,0.1114,0.1222,0.1307,0.1434,0.1393,0.1447,0.1432,0.1495,0.1507,0.1276,0.1261,0.1375,0.1371,0.1367,0.1365,0.1362,0,0.0557,0.0561,0.058,0.0585,0.0602,0.0656,0.0684,0.0771,0.0832,0.0987,0.1023,0.1156,0.1222,0.1315,0.1374,0.1457,0.1419,0.1451,0.1325,0.1267,0.127,0.1259,0.1249,0.1357,0.1356,0.1355,0.1354,0,0.0527,0.0544,0.054,0.0562,0.059,0.0607,0.0678,0.0724,0.0838,0.094,0.1047,0.1103,0.1198,0.1262,0.132,0.1366,0.1429,0.1416,0.1422,0.1304,0.1247,0.1251,0.1244,0.1343,0.1345,0.1346,0.1346,0,0.0522,0.0513,0.0529,0.0544,0.0557,0.0556,0.0595,0.0682,0.0752,0.0937,0.0975,0.1102,0.1214,0.1216,0.1278,0.1294,0.1258,0.1212,0.1228,0.1241,0.1095,0.0996,0.1039,0,0,0,0,0,0.0518,0.0516,0.0518,0.0501,0.0505,0.0529,0.0584,0.0634,0.0773,0.0829,0.091,0.0999,0.1065,0.1114,0.11,0.1166,0.1235,0.1138,0.1183,0.128,0.1293,0.1122,0,0,0,0,0,0,0.0508,0.0519,0.0511,0.0484,0.0477,0.0479,0.0514,0.0593,0.0638,0.0785,0.0831,0.0934,0.101,0.1092,0.1092,0.1102,0.1103,0.1213,0.121,0.1272,0.1284,0.1295,0.1124,0,0,0,0,0]},{"header":{"parameterUnit":"m.s-1","parameterCategory":2,"la1":30.2991,"la2":30.254,"lo1":-89.0895,"lo2":-89.0444,"dy":0.0017,"dx":0.0017,"nx":28,"ny":28,"refTime":"2025-07-27T21:00:00:Z","depth":"4","parameterNumber":3,"parameterNumberName":"V-component_of_CURRENTS"},"data":[0,0,0,0,0,0,0,0,0,0,0,0,0,0,0,0,0,0,0,0,0,0,0,0,0,0,0,0,0,0,0,0,0,0,0,0,0,0,0,0,0,0,0,0,0,0,0,0,0,0,0,0,0,0,0,0,0,0,0.0286,0.0286,0,0.0269,0.0269,0.0268,0.0276,0.0276,0.0277,0.0278,0.0263,0.0262,0.0261,0,0,0,0,0,0,0,0,0,0,0,0,0,0.0248,0.0249,0.0286,0.0286,0.0286,0.0269,0.0269,0.0268,0.0276,0.0277,0.0277,0.0278,0.0264,0.0262,0.0261,0,0,0,0,0,0,0,0,0,0,0,0,0,0.025,0.0249,0.0286,0.0289,0.0289,0.0269,0.0269,0.0268,0.0276,0.0277,0.0277,0.0278,0.0264,0.0263,0.0261,0.0236,0,0,0.0257,0.0256,0,0,0,0,0,0,0,0,0.025,0.0251,0.0288,0.0288,0.0289,0.0277,0.025,0.0258,0.0275,0.0279,0.0278,0.0279,0.0268,0.0267,0.0259,0.0235,0.0235,0.0257,0.0256,0.0256,0.0255,0,0,0,0,0,0,0,0.025,0.0251,0.0277,0.0288,0.0288,0.0265,0.0266,0.0251,0.0268,0.0279,0.028,0.028,0.0268,0.0261,0.0259,0.0234,0.0257,0.0256,0.0255,0.0254,0.0236,0.0236,0,0,0,0,0,0,0.0258,0.0252,0.0278,0.0277,0.0273,0.0265,0.0267,0.0278,0.0268,0.0268,0.0279,0.0281,0.0263,0.0261,0.0259,0.0264,0.0256,0.0254,0.0253,0.0236,0.0236,0.0236,0,0,0,0,0,0,0.0258,0.0261,0.0279,0.0264,0.0265,0.0266,0.0278,0.0278,0.0277,0.0269,0.0268,0.028,0.0263,0.0261,0.0261,0.0262,0.0254,0.0252,0.0235,0.0236,0.0236,0.0251,0,0,0,0,0,0,0.0257,0.0261,0.0271,0.0266,0.0267,0.0279,0.0277,0.0277,0.0276,0.0278,0.0269,0.0268,0.0264,0.0263,0.026,0.026,0.0251,0.0235,0.0236,0.0236,0.025,0.0252,0.0253,0,0,0,0,0,0.0256,0.0272,0.0272,0.0275,0.0281,0.028,0.0278,0.0279,0.0276,0.028,0.0277,0.0269,0.0265,0.0262,0.0258,0.0258,0.0235,0.0235,0.0236,0.0249,0.0251,0.0253,0,0,0,0,0,0,0.0257,0.0274,0.0275,0.0294,0.0291,0.0282,0.0287,0.0279,0.0277,0.0281,0.027,0.0269,0.0269,0.0262,0.026,0.0256,0.0249,0.0249,0.026,0.0262,0.0264,0.027,0.025,0,0,0,0,0,0.0262,0.0284,0.0284,0.0299,0.03,0.029,0.0289,0.0288,0.0285,0.0285,0.028,0.0275,0.0266,0.0265,0.0259,0.0253,0.0236,0.0251,0.0253,0.0255,0.0257,0.0228,0.0227,0.0239,0.0239,0.0239,0,0,0.0262,0.0278,0.0287,0.0301,0.0299,0.0307,0.0292,0.0295,0.0304,0.0282,0.0295,0.0279,0.0266,0.0265,0.0264,0.0261,0.0244,0.0256,0.0257,0.0259,0.0229,0.0228,0.0227,0.0239,0.0239,0.0239,0,0,0.0279,0.0292,0.0314,0.0316,0.0322,0.032,0.0323,0.0318,0.032,0.0323,0.0309,0.0292,0.0291,0.0274,0.0266,0.0271,0.0253,0.0274,0.0286,0.0258,0.0257,0.0255,0.0236,0.0233,0.0276,0.0276,0.0276,0,0.0278,0.0311,0.0316,0.0334,0.034,0.033,0.0344,0.0342,0.0339,0.0334,0.0337,0.0308,0.0293,0.0275,0.028,0.0272,0.0261,0.0278,0.0259,0.0258,0.0256,0.0237,0.0233,0.0277,0.0277,0.0277,0.0277,0,0.0307,0.0332,0.0343,0.0371,0.0375,0.0386,0.0386,0.0389,0.0387,0.0377,0.0363,0.0337,0.032,0.0308,0.0297,0.0275,0.0273,0.0262,0.0252,0.0255,0.0235,0.0231,0.0278,0.0278,0.0277,0.0277,0,0,0.031,0.0357,0.036,0.0379,0.0397,0.0402,0.0418,0.042,0.0424,0.041,0.0404,0.0374,0.035,0.0339,0.0312,0.0284,0.0256,0.0274,0.0272,0.0253,0.0205,0.019,0.0184,0.0245,0.0244,0.0244,0.0197,0,0.0331,0.0377,0.0394,0.0428,0.0448,0.0447,0.0459,0.0456,0.0455,0.0448,0.0404,0.0396,0.0367,0.0359,0.0322,0.0275,0.0246,0.0271,0.0207,0.0206,0.0189,0.0179,0.0241,0.0193,0.0192,0.0192,0.0191,0,0.0354,0.0386,0.043,0.0461,0.0467,0.0488,0.0502,0.0514,0.0497,0.0493,0.0467,0.0438,0.0394,0.0372,0.0289,0.031,0.0262,0.0221,0.0218,0.0196,0.0183,0.0189,0.0183,0.0184,0.0184,0.0185,0.0185,0,0.0359,0.0406,0.0448,0.0459,0.0494,0.0513,0.0529,0.0528,0.0545,0.0532,0.0534,0.0472,0.0457,0.0381,0.0298,0.0298,0.0204,0.0192,0.0131,0.013,0.015,0.0152,0.013,0.013,0.013,0.013,0.0131,0,0.0376,0.0402,0.046,0.0482,0.0524,0.0537,0.0579,0.0581,0.0592,0.0608,0.0567,0.0557,0.0462,0.0395,0.0309,0.0208,0.0213,0.013,0.0113,0.0159,0.0162,0.0147,0.015,0.0129,0.0129,0.0129,0.013,0,0.037,0.0409,0.0458,0.0512,0.0537,0.0567,0.0632,0.0656,0.0664,0.0685,0.0687,0.0632,0.0547,0.0437,0.0314,0.0237,0.0132,0.0095,0.016,0.0148,0.0074,0.0078,0.0022,0.0021,0.002,0.002,0.0019,0,0.037,0.0401,0.0486,0.0526,0.0561,0.062,0.0664,0.0696,0.0725,0.0724,0.0727,0.0663,0.0608,0.0424,0.0307,0.014,0.0113,0.0063,0.0056,0.0072,0.0061,0.0066,0.0071,0.0018,0.0018,0.0017,0.0017,0,0.0363,0.0402,0.0443,0.0538,0.0604,0.0674,0.0736,0.0763,0.0791,0.0799,0.0757,0.0663,0.0564,0.0419,0.0296,0.0172,0.0094,0.0054,0.0055,0.0048,0.0066,0.0057,0.0063,0.0014,0.0015,0.0015,0.0015,0,0.0358,0.0381,0.0453,0.0537,0.0621,0.0702,0.0739,0.0772,0.0801,0.0794,0.0778,0.067,0.0615,0.0436,0.0315,0.0198,0.0163,0.0119,0.0116,0.0118,0.0153,0.0191,0.016,0,0,0,0,0,0.0354,0.0383,0.045,0.0538,0.0626,0.0687,0.0772,0.0802,0.0831,0.0804,0.0792,0.0694,0.0518,0.0443,0.0322,0.0293,0.0141,0.0146,0.0089,-0.0002,0.0002,0.0025,0,0,0,0,0,0,0.0344,0.0394,0.0437,0.0537,0.0601,0.0696,0.0761,0.0785,0.0768,0.0774,0.0683,0.0647,0.0478,0.0579,0.0311,0.0277,0.0221,0.0069,0.0066,-0.0004,-0.0001,0.0002,0.0027,0,0,0,0,0]}]]